This demonstration page uses our WeatherBlox Daily Observations layout. Learn more.

Hourly Observations for June 28, 2020

Temp ( °F °C ) Dew Point ( °F °C ) Humidity (%) Winds ( mph kmh ) Pressure ( in mb ) Visibility ( mi km ) Precip ( " mm )
12:54 am 00:54 Clear 75 23.9 68 20 79 79 SE 12 19 29.66 1004 10 16.0934 0 0
1:54 am 01:54 Mostly Cloudy 75 23.9 68 20 79 79 S 12 19 29.66 1004 10 16.0934 0 0
2:36 am 02:36 Mostly Clear with Thunderstorms 76 24.4 68 20 77 77 SSE 12 19 29.61 1003 10 16.0934 0 0
2:54 am 02:54 Mostly Cloudy with Nearby Thunderstorms 76 24.4 69 20.6 79 79 SW 13 20 29.66 1004 10 16.0934 0.001 0.001
3:03 am 03:03 Mostly Cloudy with Light Thunderstorms 75 23.9 69 20.6 82 82 WSW 15 24 29.67 1005 10 16.0934 0.001 0.001
3:39 am 03:39 Cloudy with Heavy Thunderstorms 68 20 64 17.8 87 87 WSW 17 28 29.69 1005 2 3.21868 0.18 4.572
3:54 am 03:54 Cloudy with Thunderstorms 68 20 62 16.7 81 81 SW 18 30 29.67 1005 7 11.26538 0.25 6.35
4:20 am 04:20 Mostly Cloudy with Light Rain 70 21.1 62 16.7 76 76 NE 17 28 29.56 1001 9 14.48406 0.02 0.508
4:35 am 04:35 Partly Cloudy with Light Rain 73 22.8 59 15 62 62 NE 13 20 29.51 999 10 16.0934 0.02 0.508
4:54 am 04:54 Mostly Cloudy 70 21.1 61 16.1 73 73 S 9 15 29.53 1000 10 16.0934 0.02 0.508
5:54 am 05:54 Clear 69 20.6 63 17.2 81 81 W 8 13 29.64 1004 10 16.0934 0 0
6:54 am 06:54 Sunny 69 20.6 63 17.2 81 81 E 5 7 29.62 1003 10 16.0934 0 0
7:54 am 07:54 Sunny 71 21.7 65 18.3 81 81 SSE 6 9 29.6 1002 10 16.0934 0 0
8:54 am 08:54 Sunny 74 23.3 67 19.4 79 79 S 9 15 29.61 1003 10 16.0934 0 0
9:54 am 09:54 Sunny 81 27.2 71 21.7 72 72 S 12 19 29.61 1003 9 14.48406 0 0
10:54 am 10:54 Sunny 82 27.8 71 21.7 69 69 S 17 28 29.59 1002 7 11.26538 0 0
11:54 am 11:54 Mostly Sunny 84 28.9 72 22.2 67 67 S 18 30 29.57 1002 7 11.26538 0 0
12:54 pm 12:54 Mostly Sunny 86 30 72 22.2 63 63 S 16 26 29.58 1002 7 11.26538 0 0
1:13 pm 13:13 Mostly Cloudy 86 30 72 22.2 63 63 S 16 26 29.55 1001 7 11.26538 0 0
1:34 pm 13:34 Mostly Cloudy 87 30.6 72 22.2 61 61 S 15 24 29.54 1000 7 11.26538 0 0
1:54 pm 13:54 Mostly Cloudy 87 30.6 72 22.2 61 61 S 17 28 29.56 1001 7 11.26538 0 0
2:54 pm 14:54 Mostly Cloudy 88 31.1 72 22.2 59 59 S 20 31 29.55 1001 7 11.26538 0 0
3:54 pm 15:54 Sunny 88 31.1 73 22.8 61 61 SSE 20 31 29.55 1001 7 11.26538 0 0
4:54 pm 16:54 Partly Cloudy 87 30.6 74 23.3 65 65 SSE 17 28 29.55 1001 7 11.26538 0 0
5:54 pm 17:54 Mostly Sunny 88 31.1 74 23.3 63 63 SSE 23 37 29.53 1000 7 11.26538 0 0
6:54 pm 18:54 Mostly Cloudy 86 30 74 23.3 67 67 SSE 18 30 29.53 1000 7 11.26538 0 0
7:54 pm 19:54 Cloudy 85 29.4 73 22.8 68 68 SE 17 28 29.54 1000 7 11.26538 0 0
8:54 pm 20:54 Cloudy 85 29.4 73 22.8 68 68 SE 16 26 29.54 1000 7 11.26538 0 0
9:54 pm 21:54 Mostly Clear 83 28.3 73 22.8 72 72 SSE 17 28 29.55 1001 9 14.48406 0 0
10:54 pm 22:54 Mostly Cloudy 82 27.8 72 22.2 72 72 SSE 17 28 29.58 1002 9 14.48406 0 0
11:54 pm 23:54 Clear 81 27.2 71 21.7 72 72 SSE 20 31 29.57 1001 10 16.0934 0 0

Powered by AerisWeather